Time,TemperatureF,DewpointF,PressureIn,WindDirection,WindDirectionDegrees,WindSpeedMPH,WindSpeedGustMPH,Humidity,HourlyPrecipIn,Conditions,Clouds,dailyrainin,SoftwareType,DateUTC
2013-12-10 00:02:00,14.6,4.3,30.04,WSW,257,0.0,0.0,63,0.00,,CLR,0.00,VWS V14.01,2013-12-10 05:02:00,
2013-12-10 00:07:00,14.4,3.8,30.04,WSW,243,0.0,0.0,62,0.00,,CLR,0.00,VWS V14.01,2013-12-10 05:07:00,
2013-12-10 00:12:00,14.0,1.6,30.04,West,278,0.0,0.0,57,0.00,,CLR,0.00,VWS V14.01,2013-12-10 05:12:00,
2013-12-10 00:17:00,13.6,-0.3,30.05,WSW,246,0.0,0.0,53,0.00,,CLR,0.00,VWS V14.01,2013-12-10 05:17:00,
2013-12-10 00:22:00,13.5,-0.4,30.05,WSW,248,0.0,0.0,53,0.00,,CLR,0.00,VWS V14.01,2013-12-10 05:22:00,
2013-12-10 00:32:00,13.5,0.7,30.06,WSW,246,0.0,0.0,56,0.00,,CLR,0.00,VWS V14.01,2013-12-10 05:32:00,
2013-12-10 00:37:00,13.5,0.7,30.06,South,181,0.0,0.0,56,0.00,,CLR,0.00,VWS V14.01,2013-12-10 05:37:00,
2013-12-10 00:42:00,13.3,0.2,30.06,WSW,251,0.0,0.0,55,0.00,,CLR,0.00,VWS V14.01,2013-12-10 05:42:00,
2013-12-10 00:48:00,13.3,-0.6,30.06,West,267,0.0,0.0,53,0.00,,CLR,0.00,VWS V14.01,2013-12-10 05:48:00,
2013-12-10 00:57:00,12.9,-0.2,30.06,WSW,254,0.0,0.0,55,0.00,,CLR,0.00,VWS V14.01,2013-12-10 05:57:00,
2013-12-10 01:02:00,12.8,0.4,30.06,WSW,254,0.0,0.0,57,0.00,,CLR,0.00,VWS V14.01,2013-12-10 06:02:00,
2013-12-10 01:07:00,12.6,0.6,30.06,West,265,0.0,0.0,58,0.00,,CLR,0.00,VWS V14.01,2013-12-10 06:07:00,
2013-12-10 01:12:00,12.4,1.2,30.06,WSW,246,0.0,0.0,60,0.00,,CLR,0.00,VWS V14.01,2013-12-10 06:12:00,
2013-12-10 01:17:00,12.4,1.5,30.06,West,260,0.0,0.0,61,0.00,,CLR,0.00,VWS V14.01,2013-12-10 06:17:00,
2013-12-10 01:22:00,12.3,1.8,30.06,WSW,250,0.0,0.0,62,0.00,,CLR,0.00,VWS V14.01,2013-12-10 06:22:00,
2013-12-10 01:27:00,12.1,1.6,30.06,West,271,0.0,0.0,62,0.00,,CLR,0.00,VWS V14.01,2013-12-10 06:27:00,
2013-12-10 01:33:00,11.9,1.4,30.06,West,267,0.0,0.0,62,0.00,,CLR,0.00,VWS V14.01,2013-12-10 06:33:00,
2013-12-10 01:42:00,11.6,1.5,30.06,WSW,246,0.0,0.0,63,0.00,,CLR,0.00,VWS V14.01,2013-12-10 06:42:00,
2013-12-10 01:47:00,11.4,1.6,30.06,West,277,0.0,0.0,64,0.00,,CLR,0.00,VWS V14.01,2013-12-10 06:47:00,
2013-12-10 01:53:00,11.2,1.1,30.06,WSW,258,0.0,0.0,63,0.00,,CLR,0.00,VWS V14.01,2013-12-10 06:53:00,
2013-12-10 02:02:00,10.9,1.1,30.06,West,261,0.0,0.0,64,0.00,,CLR,0.00,VWS V14.01,2013-12-10 07:02:00,
2013-12-10 02:07:00,10.7,0.6,30.06,West,275,0.0,0.0,63,0.00,,CLR,0.00,VWS V14.01,2013-12-10 07:07:00,
2013-12-10 02:12:00,10.5,0.1,30.06,WSW,253,0.0,0.0,62,0.00,,CLR,0.00,VWS V14.01,2013-12-10 07:12:00,
2013-12-10 02:17:00,10.2,-0.6,30.06,West,270,0.0,0.0,61,0.00,,CLR,0.00,VWS V14.01,2013-12-10 07:17:00,
2013-12-10 02:27:00,9.9,-0.2,30.06,WSW,240,0.0,0.0,63,0.00,,OVC023,0.00,VWS V14.01,2013-12-10 07:27:00,
2013-12-10 02:32:00,9.7,0.0,30.06,WSW,246,0.0,0.0,64,0.00,,OVC023,0.00,VWS V14.01,2013-12-10 07:32:00,
2013-12-10 02:37:00,9.5,0.1,30.06,West,265,0.0,0.0,65,0.00,,OVC023,0.00,VWS V14.01,2013-12-10 07:37:00,
2013-12-10 02:42:00,9.3,0.3,30.06,WSW,250,0.0,0.0,66,0.00,,OVC023,0.00,VWS V14.01,2013-12-10 07:42:00,
2013-12-10 02:48:00,9.3,0.6,30.06,WSW,251,0.0,0.0,67,0.00,,OVC023,0.00,VWS V14.01,2013-12-10 07:48:00,
2013-12-10 02:57:00,9.2,0.8,30.06,WSW,251,0.0,0.0,68,0.00,,OVC023,0.00,VWS V14.01,2013-12-10 07:57:00,
2013-12-10 03:02:00,8.8,0.7,30.06,WSW,251,0.0,0.0,69,0.00,,OVC023,0.00,VWS V14.01,2013-12-10 08:02:00,
2013-12-10 03:07:00,8.6,0.5,30.06,WSW,251,0.0,0.0,69,0.00,,OVC023,0.00,VWS V14.01,2013-12-10 08:07:00,
2013-12-10 03:13:00,8.4,0.3,30.06,West,260,0.0,0.0,69,0.00,,OVC023,0.00,VWS V14.01,2013-12-10 08:13:00,
2013-12-10 03:18:00,8.1,0.1,30.05,WSW,248,0.0,0.0,69,0.00,,OVC023,0.00,VWS V14.01,2013-12-10 08:18:00,
2013-12-10 03:23:00,7.9,-0.1,30.05,WSW,248,0.0,0.0,69,0.00,,OVC023,0.00,VWS V14.01,2013-12-10 08:23:00,
2013-12-10 03:33:00,7.6,-0.4,30.05,WSW,251,0.0,0.0,69,0.00,,OVC023,0.00,VWS V14.01,2013-12-10 08:33:00,
2013-12-10 03:42:00,7.4,-0.3,30.05,WSW,256,0.0,0.0,70,0.00,,OVC023,0.00,VWS V14.01,2013-12-10 08:42:00,
2013-12-10 03:48:00,7.2,-0.5,30.04,West,270,0.0,0.0,70,0.00,,OVC023,0.00,VWS V14.01,2013-12-10 08:48:00,
2013-12-10 03:57:00,6.9,-0.5,30.04,WSW,256,0.0,0.0,71,0.00,,OVC023,0.00,VWS V14.01,2013-12-10 08:57:00,
2013-12-10 04:03:00,6.5,-1.2,30.05,West,267,0.0,0.0,70,0.00,,OVC023,0.00,VWS V14.01,2013-12-10 09:03:00,
2013-12-10 04:12:00,6.3,-1.1,30.05,WSW,258,0.0,0.0,71,0.00,,OVC023,0.00,VWS V14.01,2013-12-10 09:12:00,
2013-12-10 04:17:00,6.1,-1.3,30.05,West,260,0.0,0.0,71,0.00,,OVC023,0.00,VWS V14.01,2013-12-10 09:17:00,
2013-12-10 04:23:00,6.1,-1.3,30.05,WSW,258,0.0,0.0,71,0.00,,FEW019,0.00,VWS V14.01,2013-12-10 09:23:00,
2013-12-10 04:28:00,6.0,-1.7,30.05,WSW,251,0.0,0.0,70,0.00,,FEW019,0.00,VWS V14.01,2013-12-10 09:28:00,
2013-12-10 04:32:00,5.8,-1.9,30.05,West,261,0.0,0.0,70,0.00,,FEW019,0.00,VWS V14.01,2013-12-10 09:32:00,
2013-12-10 04:37:00,5.6,-2.0,30.05,WSW,257,0.0,0.0,70,0.00,,FEW019,0.00,VWS V14.01,2013-12-10 09:37:00,
2013-12-10 04:47:00,5.4,-2.5,30.05,West,274,0.0,0.0,69,0.00,,FEW019,0.00,VWS V14.01,2013-12-10 09:47:00,
2013-12-10 04:52:00,5.2,-2.7,30.05,West,270,0.0,0.0,69,0.00,,FEW019,0.00,VWS V14.01,2013-12-10 09:52:00,
2013-12-10 04:57:00,5.2,-2.7,30.05,West,263,0.0,0.0,69,0.00,,FEW019,0.00,VWS V14.01,2013-12-10 09:57:00,
2013-12-10 05:02:00,5.0,-2.9,30.05,West,270,0.0,0.0,69,0.00,,FEW019,0.00,VWS V14.01,2013-12-10 10:02:00,
2013-12-10 05:07:00,4.8,-3.1,30.05,West,272,0.0,0.0,69,0.00,,FEW019,0.00,VWS V14.01,2013-12-10 10:07:00,
2013-12-10 05:12:00,4.8,-3.1,30.05,WSW,251,0.0,0.0,69,0.00,,FEW019,0.00,VWS V14.01,2013-12-10 10:12:00,
2013-12-10 05:17:00,4.7,-3.8,30.04,West,271,0.0,0.0,67,0.00,,FEW019,0.00,VWS V14.01,2013-12-10 10:17:00,
2013-12-10 05:27:00,4.3,-4.5,30.04,WSW,253,0.0,0.0,66,0.00,,FEW019,0.00,VWS V14.01,2013-12-10 10:27:00,
2013-12-10 05:32:00,4.3,-4.5,30.04,WNW,291,0.0,0.0,66,0.00,,FEW019,0.00,VWS V14.01,2013-12-10 10:32:00,
2013-12-10 05:37:00,4.1,-4.7,30.04,West,264,0.0,0.0,66,0.00,,FEW019,0.00,VWS V14.01,2013-12-10 10:37:00,
2013-12-10 05:42:00,3.9,-4.9,30.04,WSW,246,0.0,0.0,66,0.00,,FEW019,0.00,VWS V14.01,2013-12-10 10:42:00,
2013-12-10 05:48:00,3.9,-4.9,30.03,WSW,246,0.0,0.0,66,0.00,,FEW019,0.00,VWS V14.01,2013-12-10 10:48:00,
2013-12-10 05:57:00,3.7,-5.1,30.03,WSW,246,0.0,0.0,66,0.00,,FEW019,0.00,VWS V14.01,2013-12-10 10:57:00,
2013-12-10 06:02:00,3.5,-5.0,30.03,WSW,246,0.0,0.0,67,0.00,,FEW019,0.00,VWS V14.01,2013-12-10 11:02:00,
2013-12-10 06:07:00,3.5,-5.0,30.03,WSW,246,0.0,0.0,67,0.00,,FEW019,0.00,VWS V14.01,2013-12-10 11:07:00,
2013-12-10 06:12:00,3.5,-5.0,30.03,WSW,246,0.0,0.0,67,0.00,,FEW019,0.00,VWS V14.01,2013-12-10 11:12:00,
2013-12-10 06:17:00,3.5,-5.0,30.02,WSW,258,0.0,0.0,67,0.00,,FEW019,0.00,VWS V14.01,2013-12-10 11:17:00,
2013-12-10 06:22:00,3.5,-5.0,30.02,WSW,257,0.0,0.0,67,0.00,,CLR,0.00,VWS V14.01,2013-12-10 11:22:00,
2013-12-10 06:27:00,3.5,-5.0,30.02,WSW,257,0.0,0.0,67,0.00,,CLR,0.00,VWS V14.01,2013-12-10 11:27:00,
2013-12-10 06:32:00,3.5,-5.0,30.02,WSW,251,0.0,0.0,67,0.00,,CLR,0.00,VWS V14.01,2013-12-10 11:32:00,
2013-12-10 06:37:00,3.5,-5.0,30.02,SSW,206,0.0,0.0,67,0.00,,CLR,0.00,VWS V14.01,2013-12-10 11:37:00,
2013-12-10 06:43:00,3.4,-5.1,30.02,SSW,209,0.0,0.0,67,0.00,,CLR,0.00,VWS V14.01,2013-12-10 11:43:00,
2013-12-10 06:48:00,3.4,-5.1,30.02,SSW,208,0.0,0.0,67,0.00,,CLR,0.00,VWS V14.01,2013-12-10 11:48:00,
2013-12-10 06:53:00,3.2,-5.3,30.02,South,178,0.0,0.0,67,0.00,,CLR,0.00,VWS V14.01,2013-12-10 11:53:00,
2013-12-10 07:02:00,3.0,-5.2,30.00,South,178,0.0,0.0,68,0.00,,CLR,0.00,VWS V14.01,2013-12-10 12:02:00,
2013-12-10 07:07:00,3.0,-4.8,30.00,South,178,0.0,0.0,69,0.00,,CLR,0.00,VWS V14.01,2013-12-10 12:07:00,
2013-12-10 07:12:00,2.8,-5.1,30.00,South,178,0.0,0.0,69,0.00,,CLR,0.00,VWS V14.01,2013-12-10 12:12:00,
2013-12-10 07:17:00,2.8,-5.1,30.00,South,178,0.0,0.0,69,0.00,,CLR,0.00,VWS V14.01,2013-12-10 12:17:00,
2013-12-10 07:22:00,2.6,-5.2,30.00,South,179,0.0,0.0,69,0.00,,CLR,0.00,VWS V14.01,2013-12-10 12:22:00,
2013-12-10 07:27:00,2.6,-4.9,30.00,South,179,0.0,0.0,70,0.00,,CLR,0.00,VWS V14.01,2013-12-10 12:27:00,
2013-12-10 07:32:00,2.8,-4.8,30.00,South,182,0.0,0.0,70,0.00,,CLR,0.00,VWS V14.01,2013-12-10 12:32:00,
2013-12-10 07:37:00,2.8,-4.4,30.00,South,179,0.0,0.0,71,0.00,,CLR,0.00,VWS V14.01,2013-12-10 12:37:00,
2013-12-10 07:42:00,2.8,-4.4,30.00,South,179,0.0,0.0,71,0.00,,CLR,0.00,VWS V14.01,2013-12-10 12:42:00,
2013-12-10 07:47:00,3.0,-4.0,30.00,South,179,0.0,0.0,72,0.00,,CLR,0.00,VWS V14.01,2013-12-10 12:47:00,
2013-12-10 07:52:00,3.0,-4.0,30.00,South,181,0.0,0.0,72,0.00,,CLR,0.00,VWS V14.01,2013-12-10 12:52:00,
2013-12-10 07:57:00,3.2,-3.8,30.00,South,182,0.0,0.0,72,0.00,,CLR,0.00,VWS V14.01,2013-12-10 12:57:00,
2013-12-10 08:02:00,3.4,-3.6,30.00,South,182,0.0,0.0,72,0.00,,CLR,0.00,VWS V14.01,2013-12-10 13:02:00,
2013-12-10 08:07:00,3.4,-3.6,30.00,South,182,0.0,0.0,72,0.00,,CLR,0.00,VWS V14.01,2013-12-10 13:07:00,
2013-12-10 08:13:00,3.7,-3.0,30.00,SSE,161,0.0,0.0,73,0.00,,CLR,0.00,VWS V14.01,2013-12-10 13:13:00,
2013-12-10 08:22:00,4.8,-1.9,29.99,SSE,158,0.0,0.0,73,0.00,,CLR,0.00,VWS V14.01,2013-12-10 13:22:00,
2013-12-10 08:28:00,5.2,-1.8,29.99,SSE,161,0.0,0.0,72,0.00,,CLR,0.00,VWS V14.01,2013-12-10 13:28:00,
2013-12-10 08:37:00,5.8,-1.6,29.98,South,181,0.0,0.0,71,0.00,,CLR,0.00,VWS V14.01,2013-12-10 13:37:00,
2013-12-10 08:42:00,6.0,-1.7,29.98,South,189,0.0,0.0,70,0.00,,CLR,0.00,VWS V14.01,2013-12-10 13:42:00,
2013-12-10 08:48:00,6.3,-1.7,29.98,SSW,202,0.0,0.0,69,0.00,,CLR,0.00,VWS V14.01,2013-12-10 13:48:00,
2013-12-10 08:57:00,7.2,-1.4,29.98,South,176,0.0,0.0,67,0.00,,CLR,0.00,VWS V14.01,2013-12-10 13:57:00,
2013-12-10 09:02:00,7.6,-1.4,29.98,SSW,195,0.0,0.0,66,0.00,,CLR,0.00,VWS V14.01,2013-12-10 14:02:00,
2013-12-10 09:07:00,8.1,-1.2,29.98,SSW,198,0.0,0.0,65,0.00,,CLR,0.00,VWS V14.01,2013-12-10 14:07:00,
2013-12-10 09:13:00,8.3,-1.4,29.98,SSW,198,0.0,0.0,64,0.00,,CLR,0.00,VWS V14.01,2013-12-10 14:13:00,
2013-12-10 09:18:00,8.3,-1.4,29.98,SSW,195,0.0,0.0,64,0.00,,CLR,0.00,VWS V14.01,2013-12-10 14:18:00,
2013-12-10 09:23:00,8.8,-0.6,29.98,South,189,0.0,0.0,65,0.00,,BKN110,0.00,VWS V14.01,2013-12-10 14:23:00,
2013-12-10 09:32:00,9.0,-0.7,29.98,SW,230,0.0,0.0,64,0.00,,BKN110,0.00,VWS V14.01,2013-12-10 14:32:00,
2013-12-10 09:37:00,9.3,-0.4,29.98,SSW,212,0.0,0.0,64,0.00,,BKN110,0.00,VWS V14.01,2013-12-10 14:37:00,
2013-12-10 09:42:00,9.9,0.2,29.98,SSW,212,0.0,0.0,64,0.00,,BKN110,0.00,VWS V14.01,2013-12-10 14:42:00,
2013-12-10 09:52:00,10.9,1.1,29.98,SSW,213,0.0,0.0,64,0.00,,BKN110,0.00,VWS V14.01,2013-12-10 14:52:00,
2013-12-10 09:57:00,11.2,1.1,29.98,South,176,0.0,0.0,63,0.00,,BKN110,0.00,VWS V14.01,2013-12-10 14:57:00,
2013-12-10 10:02:00,11.6,1.5,29.97,SSW,210,0.0,0.0,63,0.00,,BKN110,0.00,VWS V14.01,2013-12-10 15:02:00,
2013-12-10 10:07:00,12.1,1.6,29.97,SSW,212,0.0,0.0,62,0.00,,BKN110,0.00,VWS V14.01,2013-12-10 15:07:00,
2013-12-10 10:12:00,12.4,1.5,29.97,SSW,209,0.0,0.0,61,0.00,,BKN110,0.00,VWS V14.01,2013-12-10 15:12:00,
2013-12-10 10:17:00,12.6,1.7,29.96,South,175,0.0,0.0,61,0.00,,BKN110,0.00,VWS V14.01,2013-12-10 15:17:00,
2013-12-10 10:22:00,12.9,2.0,29.96,SSW,206,0.0,0.0,61,0.00,,BKN110,0.00,VWS V14.01,2013-12-10 15:22:00,
2013-12-10 10:27:00,13.3,2.0,29.96,SSW,210,0.0,0.0,60,0.00,,BKN110,0.00,VWS V14.01,2013-12-10 15:27:00,
2013-12-10 10:32:00,13.6,2.0,29.95,SSW,193,0.0,0.0,59,0.00,,BKN110,0.00,VWS V14.01,2013-12-10 15:32:00,
2013-12-10 10:37:00,14.1,2.0,29.95,SSW,213,0.0,0.0,58,0.00,,BKN110,0.00,VWS V14.01,2013-12-10 15:37:00,
2013-12-10 10:42:00,14.4,1.6,29.95,SW,236,0.0,0.0,56,0.00,,BKN110,0.00,VWS V14.01,2013-12-10 15:42:00,
2013-12-10 10:47:00,14.9,1.7,29.95,SSW,203,0.0,0.0,55,0.00,,BKN110,0.00,VWS V14.01,2013-12-10 15:47:00,
2013-12-10 10:52:00,15.2,2.0,29.95,SSW,208,0.0,0.0,55,0.00,,BKN110,0.00,VWS V14.01,2013-12-10 15:52:00,
2013-12-10 10:57:00,15.2,2.0,29.95,South,181,0.0,0.0,55,0.00,,BKN110,0.00,VWS V14.01,2013-12-10 15:57:00,
2013-12-10 11:07:00,16.1,2.4,29.95,SSW,212,0.0,0.0,54,0.00,,BKN110,0.00,VWS V14.01,2013-12-10 16:07:00,
2013-12-10 11:12:00,16.7,3.0,29.95,SW,234,0.0,0.0,54,0.00,,BKN110,0.00,VWS V14.01,2013-12-10 16:12:00,
2013-12-10 11:17:00,17.0,2.4,29.95,SW,222,0.0,0.0,52,0.00,,BKN110,0.00,VWS V14.01,2013-12-10 16:17:00,
2013-12-10 11:22:00,17.0,2.0,29.95,SW,227,0.0,0.0,51,0.00,,OVC080,0.00,VWS V14.01,2013-12-10 16:22:00,
2013-12-10 11:27:00,17.7,2.7,29.95,SW,236,0.0,0.0,51,0.00,,OVC080,0.00,VWS V14.01,2013-12-10 16:27:00,
2013-12-10 11:33:00,18.4,3.3,29.94,SW,216,0.0,0.0,51,0.00,,OVC080,0.00,VWS V14.01,2013-12-10 16:33:00,
2013-12-10 11:38:00,18.6,3.5,29.94,WSW,246,0.0,0.0,51,0.00,,OVC080,0.00,VWS V14.01,2013-12-10 16:38:00,
2013-12-10 11:43:00,18.6,3.5,29.94,WSW,244,0.0,0.0,51,0.00,,OVC080,0.00,VWS V14.01,2013-12-10 16:43:00,
2013-12-10 11:48:00,18.9,4.2,29.95,West,271,0.0,0.0,52,0.00,,OVC080,0.00,VWS V14.01,2013-12-10 16:48:00,
2013-12-10 11:53:00,19.1,4.8,29.95,SW,215,0.0,0.0,53,0.00,,OVC080,0.00,VWS V14.01,2013-12-10 16:53:00,
2013-12-10 11:58:00,19.2,4.9,29.95,WSW,244,0.0,0.0,53,0.00,,OVC080,0.00,VWS V14.01,2013-12-10 16:58:00,
2013-12-10 12:02:00,19.2,5.7,29.94,WSW,251,0.0,0.0,55,0.00,,OVC080,0.00,VWS V14.01,2013-12-10 17:02:00,
2013-12-10 12:07:00,19.7,6.2,29.94,SW,215,0.0,0.0,55,0.00,,OVC080,0.00,VWS V14.01,2013-12-10 17:07:00,
2013-12-10 12:12:00,19.7,6.2,29.94,SW,227,0.0,0.0,55,0.00,,OVC080,0.00,VWS V14.01,2013-12-10 17:12:00,
2013-12-10 12:22:00,19.9,6.3,29.93,SSW,206,0.0,0.0,55,0.00,,OVC080,0.00,VWS V14.01,2013-12-10 17:22:00,
2013-12-10 12:27:00,20.5,7.3,29.93,South,171,0.0,0.0,56,0.00,,OVC080,0.00,VWS V14.01,2013-12-10 17:27:00,
2013-12-10 12:37:00,21.0,7.4,29.92,SW,236,0.0,0.0,55,0.00,,OVC080,0.00,VWS V14.01,2013-12-10 17:37:00,
2013-12-10 12:42:00,21.0,7.4,29.92,SW,222,0.0,0.0,55,0.00,,OVC080,0.00,VWS V14.01,2013-12-10 17:42:00,
2013-12-10 12:47:00,21.4,8.1,29.92,WSW,257,0.0,0.0,56,0.00,,OVC080,0.00,VWS V14.01,2013-12-10 17:47:00,
2013-12-10 12:52:00,21.6,8.3,29.92,WSW,256,0.0,0.0,56,0.00,,OVC080,0.00,VWS V14.01,2013-12-10 17:52:00,
2013-12-10 12:57:00,21.1,7.9,29.92,WSW,244,0.0,0.0,56,0.00,,OVC080,0.00,VWS V14.01,2013-12-10 17:57:00,
2013-12-10 13:02:00,21.6,8.3,29.93,WSW,254,0.0,0.0,56,0.00,,OVC080,0.00,VWS V14.01,2013-12-10 18:02:00,
2013-12-10 13:13:00,21.4,8.1,29.93,WSW,258,0.0,0.0,56,0.00,,OVC080,0.00,VWS V14.01,2013-12-10 18:13:00,
2013-12-10 13:18:00,22.4,9.1,29.93,West,263,0.0,0.0,56,0.00,,OVC080,0.00,VWS V14.01,2013-12-10 18:18:00,
2013-12-10 13:23:00,22.5,9.6,29.93,South,175,0.0,0.0,57,0.00,,OVC080,0.00,VWS V14.01,2013-12-10 18:23:00,
2013-12-10 13:32:00,22.2,8.9,29.93,WSW,241,0.0,0.0,56,0.00,,OVC080,0.00,VWS V14.01,2013-12-10 18:32:00,
2013-12-10 13:37:00,22.4,9.5,29.93,West,265,0.0,0.0,57,0.00,,OVC080,0.00,VWS V14.01,2013-12-10 18:37:00,
2013-12-10 13:42:00,22.7,9.4,29.93,SSE,167,0.0,0.0,56,0.00,,OVC080,0.00,VWS V14.01,2013-12-10 18:42:00,
2013-12-10 13:47:00,22.7,9.4,29.93,WNW,292,0.0,0.0,56,0.00,,OVC080,0.00,VWS V14.01,2013-12-10 18:47:00,
2013-12-10 13:52:00,22.4,9.1,29.93,South,188,0.0,0.0,56,0.00,,OVC080,0.00,VWS V14.01,2013-12-10 18:52:00,
2013-12-10 13:58:00,22.5,9.6,29.93,SW,216,0.0,0.0,57,0.00,,OVC080,0.00,VWS V14.01,2013-12-10 18:58:00,
2013-12-10 14:07:00,23.2,10.2,29.93,WSW,254,0.0,0.0,57,0.00,,OVC080,0.00,VWS V14.01,2013-12-10 19:07:00,
2013-12-10 14:13:00,23.3,9.5,29.93,WSW,240,0.0,0.0,55,0.00,,OVC080,0.00,VWS V14.01,2013-12-10 19:13:00,
2013-12-10 14:18:00,23.2,10.2,29.93,WSW,253,0.0,0.0,57,0.00,,OVC080,0.00,VWS V14.01,2013-12-10 19:18:00,
2013-12-10 14:27:00,23.6,10.2,29.93,SW,222,0.0,0.0,56,0.00,,OVC043,0.00,VWS V14.01,2013-12-10 19:27:00,
2013-12-10 14:32:00,23.6,10.6,29.92,WSW,244,0.0,0.0,57,0.00,,OVC043,0.00,VWS V14.01,2013-12-10 19:32:00,
2013-12-10 14:37:00,23.5,10.5,29.92,West,268,0.0,0.0,57,0.00,,OVC043,0.00,VWS V14.01,2013-12-10 19:37:00,
2013-12-10 14:42:00,23.5,9.7,29.92,West,274,0.0,0.0,55,0.00,,OVC043,0.00,VWS V14.01,2013-12-10 19:42:00,
2013-12-10 14:47:00,23.8,10.0,29.93,WSW,250,0.0,0.0,55,0.00,,OVC043,0.00,VWS V14.01,2013-12-10 19:47:00,
2013-12-10 14:57:00,23.5,9.3,29.93,WSW,248,0.0,0.0,54,0.00,,OVC043,0.00,VWS V14.01,2013-12-10 19:57:00,
2013-12-10 15:02:00,23.8,9.6,29.93,SW,233,0.0,0.0,54,0.00,,OVC043,0.00,VWS V14.01,2013-12-10 20:02:00,
2013-12-10 15:07:00,23.8,9.2,29.93,SW,233,0.0,0.0,53,0.00,,OVC043,0.00,VWS V14.01,2013-12-10 20:07:00,
2013-12-10 15:12:00,23.8,9.2,29.93,SW,227,0.0,0.0,53,0.00,,OVC043,0.00,VWS V14.01,2013-12-10 20:12:00,
2013-12-10 15:17:00,23.9,9.3,29.95,SSW,210,0.0,0.0,53,0.00,,OVC043,0.00,VWS V14.01,2013-12-10 20:17:00,
2013-12-10 15:22:00,24.2,10.4,29.95,West,275,0.0,0.0,55,0.00,,OVC043,0.00,VWS V14.01,2013-12-10 20:22:00,
2013-12-10 15:27:00,24.2,10.0,29.95,SSW,202,0.0,0.0,54,0.00,,OVC043,0.00,VWS V14.01,2013-12-10 20:27:00,
2013-12-10 15:32:00,24.1,9.5,29.96,SW,232,0.0,0.0,53,0.00,,OVC043,0.00,VWS V14.01,2013-12-10 20:32:00,
2013-12-10 15:37:00,23.8,9.2,29.96,SSW,202,0.0,0.0,53,0.00,,OVC043,0.00,VWS V14.01,2013-12-10 20:37:00,
2013-12-10 15:42:00,23.5,9.3,29.96,West,270,0.0,0.0,54,0.00,,OVC043,0.00,VWS V14.01,2013-12-10 20:42:00,
2013-12-10 15:47:00,24.1,9.9,29.96,West,280,0.0,0.0,54,0.00,,OVC043,0.00,VWS V14.01,2013-12-10 20:47:00,
2013-12-10 15:52:00,23.6,9.0,29.96,WSW,244,0.0,0.0,53,0.00,,OVC043,0.00,VWS V14.01,2013-12-10 20:52:00,
2013-12-10 15:57:00,23.8,9.2,29.96,WSW,253,0.0,0.0,53,0.00,,OVC043,0.00,VWS V14.01,2013-12-10 20:57:00,
2013-12-10 16:02:00,23.9,9.3,29.98,WSW,248,0.0,0.0,53,0.00,,OVC043,0.00,VWS V14.01,2013-12-10 21:02:00,
2013-12-10 16:07:00,23.8,8.8,29.98,West,277,0.0,0.0,52,0.00,,OVC043,0.00,VWS V14.01,2013-12-10 21:07:00,
2013-12-10 16:12:00,23.9,8.9,29.98,West,263,0.0,0.0,52,0.00,,OVC043,0.00,VWS V14.01,2013-12-10 21:12:00,
2013-12-10 16:18:00,23.6,8.6,29.99,WSW,256,0.0,0.0,52,0.00,,OVC043,0.00,VWS V14.01,2013-12-10 21:18:00,
2013-12-10 16:23:00,23.6,8.6,29.99,SW,217,0.0,0.0,52,0.00,,OVC043,0.00,VWS V14.01,2013-12-10 21:23:00,
2013-12-10 16:28:00,23.6,9.0,29.99,WSW,253,0.0,0.0,53,0.00,,OVC043,0.00,VWS V14.01,2013-12-10 21:28:00,
2013-12-10 16:33:00,23.5,8.9,30.00,SW,219,0.0,0.0,53,0.00,,OVC043,0.00,VWS V14.01,2013-12-10 21:33:00,
2013-12-10 16:38:00,23.3,9.1,30.00,SW,230,0.0,0.0,54,0.00,,OVC043,0.00,VWS V14.01,2013-12-10 21:38:00,
2013-12-10 16:43:00,23.2,9.4,30.00,WSW,247,0.0,0.0,55,0.00,,OVC043,0.00,VWS V14.01,2013-12-10 21:43:00,
2013-12-10 16:48:00,23.0,9.2,30.00,WSW,251,0.0,0.0,55,0.00,,OVC043,0.00,VWS V14.01,2013-12-10 21:48:00,
2013-12-10 16:53:00,23.0,9.7,30.00,WSW,253,0.0,0.0,56,0.00,,OVC043,0.00,VWS V14.01,2013-12-10 21:53:00,
2013-12-10 16:58:00,22.9,9.6,30.00,WSW,253,0.0,0.0,56,0.00,,OVC043,0.00,VWS V14.01,2013-12-10 21:58:00,
2013-12-10 17:02:00,22.7,9.4,30.01,SW,233,0.0,0.0,56,0.00,,OVC043,0.00,VWS V14.01,2013-12-10 22:02:00,
2013-12-10 17:07:00,22.5,9.6,30.01,SSW,209,0.0,0.0,57,0.00,,OVC043,0.00,VWS V14.01,2013-12-10 22:07:00,
2013-12-10 17:17:00,22.1,9.6,30.01,WSW,257,0.0,0.0,58,0.00,,OVC043,0.00,VWS V14.01,2013-12-10 22:17:00,
2013-12-10 17:22:00,22.1,9.6,30.01,WSW,258,0.0,0.0,58,0.00,,BKN038,0.00,VWS V14.01,2013-12-10 22:22:00,
2013-12-10 17:27:00,22.1,9.6,30.01,WSW,248,0.0,0.0,58,0.00,,BKN038,0.00,VWS V14.01,2013-12-10 22:27:00,
2013-12-10 17:32:00,21.9,9.8,30.02,SSW,206,0.0,0.0,59,0.00,,BKN038,0.00,VWS V14.01,2013-12-10 22:32:00,
2013-12-10 17:37:00,21.8,9.7,30.02,West,263,0.0,0.0,59,0.00,,BKN038,0.00,VWS V14.01,2013-12-10 22:37:00,
2013-12-10 17:42:00,21.6,9.5,30.02,WSW,239,0.0,0.0,59,0.00,,BKN038,0.00,VWS V14.01,2013-12-10 22:42:00,
2013-12-10 17:47:00,21.4,9.3,30.02,SW,236,0.0,0.0,59,0.00,,BKN038,0.00,VWS V14.01,2013-12-10 22:47:00,
2013-12-10 17:53:00,21.4,9.3,30.02,SW,222,0.0,0.0,59,0.00,,BKN038,0.00,VWS V14.01,2013-12-10 22:53:00,
2013-12-10 18:07:00,21.1,9.4,30.03,WSW,253,0.0,0.0,60,0.00,,BKN038,0.00,VWS V14.01,2013-12-10 23:07:00,
2013-12-10 18:13:00,21.1,9.4,30.03,SW,222,0.0,0.0,60,0.00,,BKN038,0.00,VWS V14.01,2013-12-10 23:13:00,
2013-12-10 18:18:00,21.1,9.4,30.04,West,261,0.0,0.0,60,0.00,,BKN038,0.00,VWS V14.01,2013-12-10 23:18:00,
2013-12-10 18:23:00,21.0,9.3,30.04,WSW,251,0.0,0.0,60,0.00,,FEW034,0.00,VWS V14.01,2013-12-10 23:23:00,
2013-12-10 18:28:00,20.8,9.5,30.04,SW,227,0.0,0.0,61,0.00,,FEW034,0.00,VWS V14.01,2013-12-10 23:28:00,
2013-12-10 18:33:00,20.6,9.3,30.05,SW,229,0.0,0.0,61,0.00,,FEW034,0.00,VWS V14.01,2013-12-10 23:33:00,
2013-12-10 18:38:00,20.5,9.6,30.05,SSW,206,0.0,0.0,62,0.00,,FEW034,0.00,VWS V14.01,2013-12-10 23:38:00,
2013-12-10 18:43:00,20.5,9.2,30.05,WSW,254,0.0,0.0,61,0.00,,FEW034,0.00,VWS V14.01,2013-12-10 23:43:00,
2013-12-10 18:48:00,20.2,8.9,30.06,WSW,243,0.0,0.0,61,0.00,,FEW034,0.00,VWS V14.01,2013-12-10 23:48:00,
2013-12-10 18:53:00,20.3,8.3,30.06,WSW,247,0.0,0.0,59,0.00,,FEW034,0.00,VWS V14.01,2013-12-10 23:53:00,
2013-12-10 18:58:00,20.2,8.6,30.06,SSW,209,0.0,0.0,60,0.00,,FEW034,0.00,VWS V14.01,2013-12-10 23:58:00,
2013-12-10 19:03:00,20.0,8.4,30.06,WSW,240,0.0,0.0,60,0.00,,FEW034,0.00,VWS V14.01,2013-12-11 00:03:00,
2013-12-10 19:08:00,20.0,8.0,30.06,SW,236,0.0,0.0,59,0.00,,FEW034,0.00,VWS V14.01,2013-12-11 00:08:00,
2013-12-10 19:13:00,20.0,8.4,30.06,West,260,0.0,0.0,60,0.00,,FEW034,0.00,VWS V14.01,2013-12-11 00:13:00,
2013-12-10 19:18:00,19.9,8.3,30.06,South,191,0.0,0.0,60,0.00,,FEW034,0.00,VWS V14.01,2013-12-11 00:18:00,
2013-12-10 19:23:00,19.7,8.4,30.06,SW,224,0.0,0.0,61,0.00,,FEW034,0.00,VWS V14.01,2013-12-11 00:23:00,
2013-12-10 19:28:00,19.5,8.3,30.06,West,264,0.0,0.0,61,0.00,,FEW034,0.00,VWS V14.01,2013-12-11 00:28:00,
2013-12-10 19:32:00,19.4,7.8,30.06,WSW,256,0.0,0.0,60,0.00,,FEW034,0.00,VWS V14.01,2013-12-11 00:32:00,
2013-12-10 19:37:00,19.4,7.8,30.06,West,268,0.0,0.0,60,0.00,,FEW034,0.00,VWS V14.01,2013-12-11 00:37:00,
2013-12-10 19:42:00,19.2,7.6,30.06,SW,223,0.0,0.0,60,0.00,,FEW034,0.00,VWS V14.01,2013-12-11 00:42:00,
2013-12-10 19:47:00,19.1,7.5,30.06,SW,227,0.0,0.0,60,0.00,,FEW034,0.00,VWS V14.01,2013-12-11 00:47:00,
2013-12-10 19:52:00,18.9,7.3,30.06,WSW,251,0.0,0.0,60,0.00,,FEW034,0.00,VWS V14.01,2013-12-11 00:52:00,
2013-12-10 19:57:00,18.9,6.6,30.06,West,270,0.0,0.0,58,0.00,,FEW034,0.00,VWS V14.01,2013-12-11 00:57:00,
2013-12-10 20:03:00,18.9,6.6,30.07,WSW,239,0.0,0.0,58,0.00,,FEW034,0.00,VWS V14.01,2013-12-11 01:03:00,
2013-12-10 20:12:00,18.8,5.7,30.07,West,261,0.0,0.0,56,0.00,,FEW034,0.00,VWS V14.01,2013-12-11 01:12:00,
2013-12-10 20:17:00,18.8,5.7,30.07,West,268,0.0,0.0,56,0.00,,FEW034,0.00,VWS V14.01,2013-12-11 01:17:00,
2013-12-10 20:22:00,18.6,5.5,30.07,West,275,0.0,0.0,56,0.00,,BKN028,0.00,VWS V14.01,2013-12-11 01:22:00,
2013-12-10 20:27:00,18.4,5.7,30.07,SW,230,0.0,0.0,57,0.00,,BKN028,0.00,VWS V14.01,2013-12-11 01:27:00,
2013-12-10 20:33:00,18.4,5.7,30.08,SSW,206,0.0,0.0,57,0.00,,BKN028,0.00,VWS V14.01,2013-12-11 01:33:00,
2013-12-10 20:43:00,18.1,5.8,30.08,WSW,241,0.0,0.0,58,0.00,,BKN028,0.00,VWS V14.01,2013-12-11 01:43:00,
2013-12-10 20:48:00,18.0,5.7,30.08,WSW,254,0.0,0.0,58,0.00,,BKN028,0.00,VWS V14.01,2013-12-11 01:48:00,
2013-12-10 20:53:00,17.8,5.9,30.08,WSW,241,0.0,0.0,59,0.00,,BKN028,0.00,VWS V14.01,2013-12-11 01:53:00,
2013-12-10 21:03:00,17.7,6.2,30.10,SW,226,0.0,0.0,60,0.00,,BKN028,0.00,VWS V14.01,2013-12-11 02:03:00,
2013-12-10 21:08:00,17.5,6.0,30.10,West,261,0.0,0.0,60,0.00,,BKN028,0.00,VWS V14.01,2013-12-11 02:08:00,
2013-12-10 21:17:00,17.5,6.4,30.12,WSW,254,0.0,0.0,61,0.00,,BKN028,0.00,VWS V14.01,2013-12-11 02:17:00,
2013-12-10 21:23:00,17.5,6.4,30.12,WSW,258,0.0,0.0,61,0.00,,BKN028,0.00,VWS V14.01,2013-12-11 02:23:00,
2013-12-10 21:28:00,17.5,6.4,30.12,WNW,284,0.0,0.0,61,0.00,,BKN028,0.00,VWS V14.01,2013-12-11 02:28:00,
2013-12-10 21:33:00,17.5,6.4,30.12,West,270,0.0,0.0,61,0.00,,BKN028,0.00,VWS V14.01,2013-12-11 02:33:00,
2013-12-10 21:38:00,17.5,6.4,30.12,West,268,0.0,0.0,61,0.00,,BKN028,0.00,VWS V14.01,2013-12-11 02:38:00,
2013-12-10 21:43:00,17.3,6.2,30.12,West,261,0.0,0.0,61,0.00,,BKN028,0.00,VWS V14.01,2013-12-11 02:43:00,
2013-12-10 21:48:00,17.3,6.2,30.12,WSW,258,0.0,0.0,61,0.00,,BKN028,0.00,VWS V14.01,2013-12-11 02:48:00,
2013-12-10 21:53:00,17.2,6.1,30.12,West,261,0.0,0.0,61,0.00,,BKN028,0.00,VWS V14.01,2013-12-11 02:53:00,
2013-12-10 21:58:00,17.2,6.4,30.12,West,278,0.0,0.0,62,0.00,,BKN028,0.00,VWS V14.01,2013-12-11 02:58:00,
2013-12-10 22:07:00,16.9,6.2,30.12,WSW,239,0.0,0.0,62,0.00,,BKN028,0.00,VWS V14.01,2013-12-11 03:07:00,
2013-12-10 22:12:00,16.9,6.2,30.12,West,277,0.0,0.0,62,0.00,,BKN028,0.00,VWS V14.01,2013-12-11 03:12:00,
2013-12-10 22:17:00,16.9,6.2,30.13,WSW,250,0.0,0.0,62,0.00,,BKN028,0.00,VWS V14.01,2013-12-11 03:17:00,
2013-12-10 22:23:00,16.7,6.0,30.13,WSW,244,0.0,0.0,62,0.00,,FEW026,0.00,VWS V14.01,2013-12-11 03:23:00,
2013-12-10 22:32:00,16.7,5.6,30.12,WSW,250,0.0,0.0,61,0.00,,FEW026,0.00,VWS V14.01,2013-12-11 03:32:00,
2013-12-10 22:37:00,16.7,5.6,30.12,WSW,241,0.0,0.0,61,0.00,,FEW026,0.00,VWS V14.01,2013-12-11 03:37:00,
2013-12-10 22:42:00,16.7,5.6,30.12,WSW,254,0.0,0.0,61,0.00,,FEW026,0.00,VWS V14.01,2013-12-11 03:42:00,
2013-12-10 22:47:00,16.7,5.2,30.12,WSW,244,0.0,0.0,60,0.00,,FEW026,0.00,VWS V14.01,2013-12-11 03:47:00,
2013-12-10 22:52:00,16.7,5.2,30.12,WSW,257,0.0,0.0,60,0.00,,FEW026,0.00,VWS V14.01,2013-12-11 03:52:00,
2013-12-10 22:58:00,16.5,5.4,30.12,SW,215,0.0,0.0,61,0.00,,FEW026,0.00,VWS V14.01,2013-12-11 03:58:00,
2013-12-10 23:03:00,16.5,5.1,30.13,WSW,237,0.0,0.0,60,0.00,,FEW026,0.00,VWS V14.01,2013-12-11 04:03:00,
2013-12-10 23:13:00,16.5,5.8,30.13,SW,215,0.0,0.0,62,0.00,,FEW026,0.00,VWS V14.01,2013-12-11 04:13:00,
2013-12-10 23:22:00,16.5,6.1,30.13,WSW,254,0.0,0.0,63,0.00,,SCT110,0.00,VWS V14.01,2013-12-11 04:22:00,
2013-12-10 23:27:00,16.5,6.1,30.13,WSW,240,0.0,0.0,63,0.00,,SCT110,0.00,VWS V14.01,2013-12-11 04:27:00,
2013-12-10 23:33:00,16.4,6.4,30.14,SSW,208,0.0,0.0,64,0.00,,SCT110,0.00,VWS V14.01,2013-12-11 04:33:00,
2013-12-10 23:42:00,16.2,6.2,30.14,WSW,247,0.0,0.0,64,0.00,,SCT110,0.00,VWS V14.01,2013-12-11 04:42:00,
2013-12-10 23:48:00,16.2,6.2,30.15,WSW,243,0.0,0.0,64,0.00,,SCT110,0.00,VWS V14.01,2013-12-11 04:48:00,
2013-12-10 23:57:00,16.1,6.4,30.15,WSW,253,0.0,0.0,65,0.00,,SCT110,0.00,VWS V14.01,2013-12-11 04:57:00,